Regional Weather Roundup
Issued by NWS Cleveland, OH

Home | Current Version | Previous Version | Graphics & Text | Print | Product List | Glossary On
Versions: 1 2 3 4 5 6 7 8 9 10 11 12 13 14 15 16 17 18 19 20 21 22 23 24 25 26 27 28 29 30 31 32 33 34 35 36 37 38 39 40 41 42 43 44 45 46 47 48 49 50
000
ASUS41 KCLE 280210
RWRCLE
OHIO REGIONAL WEATHER ROUNDUP
NATIONAL WEATHER SERVICE WILMINGTON, OH
1000 PM EDT MON MAR 27 2017

NOTE: "FAIR" INDICATES FEW OR NO CLOUDS BELOW 12,000 FEET WITH NO
SIGNIFICANT WEATHER AND/OR OBSTRUCTIONS TO VISIBILITY.

OHZ001>008-015>018-024>027-034-035-043-044-280300-
   NORTHWEST OHIO

CITY           SKY/WX    TMP DP  RH WIND       PRES   REMARKS
DEFIANCE       CLOUDY    54  49  83 CALM      29.90R
FINDLAY        CLOUDY    58  49  72 NE5       29.88R
TOLEDO EXPRESS CLOUDY    54  49  83 CALM      29.89S
TOLEDO EXEC    CLOUDY    54  50  86 CALM      29.91R
LIMA           CLOUDY    56  53  90 NE5       29.88R
$$

OHZ009>014-019>023-028>033-038-089-280300-
   NORTHEAST OHIO

CITY           SKY/WX    TMP DP  RH WIND       PRES   REMARKS
CLE-HOPKINS    CLOUDY    55  46  71 NE5       29.93S
CLE-LAKEFRONT  MOCLDY    53  47  79 NE6       29.90S
CUY CO. ARPT   PTCLDY    52  48  87 CALM      29.92S
LORAIN-ELYRIA  CLOUDY    53  46  77 E6        29.91R
ASHTABULA      MOCLDY    48  47  96 NE3       29.93R
AKRON-CANTON   MOCLDY    56  47  71 N5        29.90S
WOOSTER        CLOUDY    56  50  80 N3        29.90S
MANSFIELD      CLOUDY    56  51  84 N5        29.90S
YOUNGSTOWN     CLOUDY    57  46  66 N3        29.92S
$$

OHZ042-051>053-060>062-070>072-077>081-280300-
  SOUTHWEST OHIO

CITY           SKY/WX    TMP DP  RH WIND       PRES   REMARKS
CINC-COVINGTON LGT RAIN  58  57  97 S8        29.84F
CINC-LUNKEN    LGT RAIN  59  58  96 SE5       29.87R
HAMILTON       LGT RAIN  58  58 100 CALM      29.87R
DAYTON         RAIN      58  54  86 SE12      29.86S
WRIGHT-PAT AFB LGT RAIN  60  58  92 CALM      29.85S
DAYTON GENERAL TSTM      59  57  93 CALM      29.85S FOG
WILMINGTON     LGT RAIN  59  56  89 E5        29.85S
$$

OHZ036-037-039>041-045>050-054>059-063>069-073>076-082>088-280300-
  CENTRAL AND SOUTHEAST OHIO

CITY           SKY/WX    TMP DP  RH WIND       PRES   REMARKS
COLUMBUS       CLOUDY    61  52  72 NE3       29.86S
OSU AIRPORT    FAIR      57  53  86 NE3       29.87S
BOLTON FIELD   MOCLDY    59  52  78 E3        29.87S
RICKENBACK AFB FAIR      56  52  85 E5        29.85F
NEWARK         FAIR      57  51  80 CALM      29.87S
MARION         MOCLDY    55  50  83 N5        29.89S
LANCASTER      FAIR      57  52  83 CALM      29.87S
ZANESVILLE     FAIR      59  51  75 CALM      29.88S
NEW PHILLY     MOCLDY    58  51  78 CALM      29.89F
$$




USA.gov is the U.S. government's official web portal to all federal, state and local government web resources and services.